Nashville, TN

2:56 PM CST on December 15, 2019 (GMT -0600)
Nashville International

Weather History for KBNA - October, 2019

Change the Weather History Date:

Wednesday, October 23, 2019

  Actual Average Record
Temperature  
Mean Temperature 55 °F 58 °F  
Max Temperature 70 °F 69 °F 87 °F (1939)
Min Temperature 40 °F 47 °F 30 °F (1952)
Degree Days  
Heating Degree Days 10    
Month to date heating degree days 85  
Since 1 July heating degree days 85  
Cooling Degree Days 0    
Month to date cooling degree days 107  
Year to date cooling degree days 2278  
Growing Degree Days 5 (Base 50)    
Moisture  
Dew Point 34 °F    
Average Humidity 51    
Maximum Humidity 82    
Minimum Humidity 21    
Precipitation  
Precipitation 0.00 in 0.10 in 2.18 in (2007)
Month to date precipitation 3.18 2.21  
Year to date precipitation 50.60 37.87  
Sea Level Pressure  
Sea Level Pressure 30.17 in    
Wind  
Wind Speed 4 mph ()    
Max Wind Speed 12 mph    
Max Gust Speed 13 mph    
Visibility 10.0 miles    
Events      
T = Trace of Precipitation, MM = Missing Value Source: Averaged Metar Reports

Daily Weather History Graph

Daily Weather History Graph

Search for Another Location

Airport or City:

Astronomy

Oct. 23, 2019 Rise Set
Actual Time 7:00 AM CDT 6:00 PM CDT
Civil Twilight 6:34 AM CDT 6:27 PM CDT
Nautical Twilight 6:04 AM CDT 6:57 PM CDT
Astronomical Twilight 5:34 AM CDT 7:26 PM CDT
Moon 1:32 AM CDT (10/23) 3:39 PM CDT (10/23)
Length of Visible Light 11h 52m
Length of Day
11h 00m
Waning Crescent, 26% of the Moon is Illuminated
Oct 23
Waning Crescent
Oct 27
New
Nov 4
First Quarter
Nov 12
Full
Nov 19
Last Quarter

Hourly Weather History & Observations

Time (CDT) Temp. Windchill Dew Point Humidity Pressure Visibility Wind Dir Wind Speed Gust Speed Precip Events Conditions
12:53 AM 51.1 °F - 35.1 °F 54% 30.10 in 10.0 mi SW 4.6 mph - N/A   Clear
1:53 AM 51.1 °F - 35.1 °F 54% 30.11 in 10.0 mi Variable 3.5 mph - N/A   Clear
2:53 AM 48.0 °F - 36.0 °F 63% 30.12 in 10.0 mi West 3.5 mph - N/A   Clear
4:53 AM 42.1 °F 38.4 °F 37.0 °F 82% 30.13 in 10.0 mi South 5.8 mph - N/A   Clear
5:53 AM 42.1 °F 38.4 °F 36.0 °F 79% 30.15 in 10.0 mi South 5.8 mph - N/A   Clear
6:53 AM 41.0 °F 39.0 °F 36.0 °F 82% 30.17 in 10.0 mi SSW 3.5 mph - N/A   Clear
7:53 AM 44.1 °F 42.5 °F 37.9 °F 79% 30.18 in 9.0 mi SSE 3.5 mph - N/A   Clear
8:53 AM 48.9 °F - 39.0 °F 69% 30.20 in 10.0 mi South 3.5 mph - N/A   Clear
9:53 AM 57.0 °F - 37.0 °F 47% 30.22 in 10.0 mi SE 3.5 mph - N/A   Clear
10:53 AM 62.1 °F - 28.9 °F 29% 30.22 in 10.0 mi Variable 3.5 mph - N/A   Clear
11:53 AM 66.0 °F - 30.0 °F 26% 30.21 in 10.0 mi West 3.5 mph - N/A   Clear
12:53 PM 66.9 °F - 26.1 °F 21% 30.19 in 10.0 mi NE 3.5 mph - N/A   Clear
1:53 PM 68.0 °F - 27.0 °F 21% 30.17 in 10.0 mi South 3.5 mph - N/A   Partly Cloudy
2:53 PM 69.1 °F - 28.9 °F 22% 30.15 in 10.0 mi SSE 6.9 mph - N/A   Clear
3:53 PM 68.0 °F - 27.0 °F 21% 30.16 in 10.0 mi East 5.8 mph - N/A   Clear
4:53 PM 68.0 °F - 28.0 °F 22% 30.16 in 10.0 mi Calm Calm - N/A   Clear
5:53 PM 64.0 °F - 30.0 °F 28% 30.16 in 10.0 mi ESE 4.6 mph - N/A   Clear
6:53 PM 61.0 °F - 33.1 °F 35% 30.19 in 10.0 mi South 3.5 mph - N/A   Partly Cloudy
7:53 PM 55.0 °F - 37.9 °F 53% 30.19 in 10.0 mi South 5.8 mph - N/A   Clear
8:53 PM 50.0 °F - 39.9 °F 68% 30.19 in 10.0 mi North - - N/A   Clear
9:53 PM 50.0 °F - 39.9 °F 68% 30.19 in 10.0 mi South 5.8 mph - N/A   Clear
10:53 PM 46.9 °F - 39.0 °F 74% 30.19 in 10.0 mi South 6.9 mph - N/A   Clear
11:53 PM 46.9 °F - 39.0 °F 74% 30.19 in 10.0 mi South 5.8 mph - N/A   Clear